Location: Newark
(44.6028°N, 124.0883°W)
Time: 21:45:42
(UTC+00:00)

ISS - Visible Passes

Search period start: 23 September 2020 00:00
Search period end: 03 October 2020 00:00
Orbit: 419 x 420 km, 51.6° (Epoch: 24 September)

Date Brightness Start Highest point End Pass type
(mag) Time Alt. Az. Time Alt. Az. Time Alt. Az.
23 Sep -2.4 03:24:58 10° W 03:28:09 37° NNW 03:30:45 14° NE visible
23 Sep -0.7 05:02:46 10° NW 05:03:43 15° NW 05:03:43 15° NW visible
24 Sep -2.9 02:37:24 10° W 02:40:41 49° NNW 02:43:59 10° NE visible
24 Sep -1.9 04:15:12 10° WNW 04:18:01 24° N 04:18:10 24° N visible
25 Sep -1.9 03:27:34 10° WNW 03:30:28 26° N 03:32:35 15° NE visible
25 Sep -0.4 05:05:01 10° NW 05:05:33 13° NW 05:05:33 13° NW visible
26 Sep -2.2 02:39:54 10° WNW 02:42:56 30° NNW 02:45:58 10° NE visible
26 Sep -1.8 04:17:33 10° NW 04:19:55 24° N 04:19:55 24° N visible
27 Sep -1.9 03:30:01 10° NW 03:32:50 24° N 03:34:16 18° NE visible
27 Sep -0.3 05:06:59 10° NW 05:07:14 12° NW 05:07:14 12° NW visible
28 Sep -1.9 02:42:25 10° WNW 02:45:14 24° N 02:48:04 10° NE visible
28 Sep -1.7 04:19:36 10° NW 04:21:34 26° NNW 04:21:34 26° NNW visible
29 Sep -2.3 03:32:10 10° NW 03:35:08 28° NNE 03:35:55 25° NE visible
30 Sep -2.1 02:44:40 10° NW 02:47:32 25° N 02:50:16 11° ENE visible
30 Sep -1.7 04:21:28 10° NW 04:23:13 27° NW 04:23:13 27° NW visible
01 Oct -3.1 03:34:03 10° NW 03:37:18 42° NNE 03:37:35 41° NE visible
02 Oct -2.6 02:46:38 10° NW 02:49:44 33° NNE 02:52:00 16° ENE visible
02 Oct -1.4 04:23:22 10° WNW 04:24:57 25° WNW 04:24:57 25° WNW visible
